Date,TemperatureHighF,TemperatureAvgF,TemperatureLowF,DewpointHighF,DewpointAvgF,DewpointLowF,HumidityHigh,HumidityAvg,HumidityLow,PressureMaxIn,PressureMinIn,WindSpeedMaxMPH,WindSpeedAvgMPH,GustSpeedMaxMPH,PrecipitationSumIn
2013-1-1,28,24,19,23,16,11,93,75,58,0.00,40.00,23,18,35,0.00
2013-1-2,25,20,15,17,10,6,84,67,47,0.00,40.00,23,17,40,0.00
2013-1-3,43,32,20,9,0,-5,61,29,13,0.00,40.00,23,16,30,0.00
2013-1-4,42,38,33,15,5,-11,46,27,13,0.00,40.00,27,17,38,0.00
2013-1-5,36,31,26,19,17,14,68,56,46,0.00,40.00,18,15,28,0.00
2013-1-6,40,36,28,19,9,-7,51,34,13,0.00,40.00,22,16,27,0.00
2013-1-7,39,34,31,25,18,15,72,53,43,0.00,40.00,18,12,25,0.00
2013-1-8,40,35,28,24,18,11,65,49,39,0.00,40.00,27,18,41,0.00
2013-1-9,51,42,29,24,19,14,59,41,23,0.00,40.00,23,19,32,0.00
2013-1-10,50,34,14,25,18,4,96,57,18,0.00,40.00,19,13,26,0.00
2013-1-11,8,3,-1,4,-2,-6,85,80,78,0.00,40.00,16,13,23,0.00
2013-1-12,11,4,-1,7,0,-6,83,80,78,0.00,40.00,12,7,19,0.00
2013-1-13,11,8,5,7,4,1,84,83,80,0.00,40.00,19,11,26,0.00
2013-1-14,17,11,8,7,3,-1,84,69,50,0.00,40.00,24,18,34,0.00
2013-1-15,32,26,16,21,17,2,88,71,53,0.00,40.00,33,28,47,0.00
2013-1-16,40,35,31,20,18,15,61,50,41,0.00,40.00,35,22,54,0.00
2013-1-17,45,37,31,18,15,13,57,41,27,0.00,40.00,27,19,35,0.00
2013-1-18,48,43,39,16,12,10,33,28,24,0.00,40.00,25,19,39,0.00
2013-1-19,40,31,24,22,17,12,81,58,33,0.00,40.00,19,12,26,0.00
2013-1-20,33,14,4,19,9,-1,92,81,49,0.00,40.00,25,9,32,0.00
2013-1-21,30,17,7,18,10,3,86,77,48,0.00,40.00,14,6,18,0.00
2013-1-22,44,35,29,15,10,6,50,35,25,0.00,40.00,18,11,24,0.00
2013-1-23,30,20,12,16,12,7,90,73,37,0.00,40.00,22,9,29,0.00
2013-1-24,47,39,24,23,16,7,72,41,20,0.00,40.00,22,15,31,0.00
2013-1-25,48,40,31,22,19,16,55,43,32,0.00,40.00,16,12,19,0.00
2013-1-26,54,46,42,26,22,17,46,38,31,0.00,40.00,16,10,19,0.00
2013-1-27,42,31,26,31,27,22,99,85,45,0.00,40.00,21,11,32,0.00
2013-1-28,31,26,23,24,20,8,95,79,53,0.00,40.00,16,12,20,0.08
2013-1-29,24,13,-3,18,5,-8,87,71,51,0.00,40.00,26,15,35,0.01
2013-1-30,25,14,-3,22,10,-8,91,84,70,0.00,40.00,23,16,32,0.00
2013-1-31,29,10,-6,24,5,-12,88,81,75,0.00,40.00,23,12,26,0.00